Home   Weather   Shenyang   Past weeks

Flag for China Past Weather in Shenyang, Liaoning, China — Yesterday and Last 2 Weeks

Now
55 °F

Clear.


Feels Like: 55 °F
Forecast: 47 / 75 °F
Wind: 1 mph from Southwest

Location: Shenyang / Taoxian

Current Time: Sep 29, 2016 at 6:22:40 PM

Latest Report: Sep 29, 2016 at 6:00 PM


Visibility: 10 mi

Pressure: 29.98 "Hg

Humidity: 55%

Dew Point: 39 °F

Location of ShenyangLocation

Past Weather in Shenyang — Graph

°F

Shenyang Temperature Yesterday

Maximum temperature yesterday: 59 °F (at 1:30 PM)
Minimum temperature yesterday: 41 °F (at 4:00 AM)
Average temperature yesterday: 50 °F

High & Low Weather Summary for the Past Weeks

 TemperatureHumidityPressure
High81 °F (Sep 16, 1:30 PM)94% (Sep 14, 8:30 PM)30.33 "Hg (Sep 14, 8:30 PM)
Low36 °F (Sep 29, 3:30 AM)26% (Sep 29, 1:00 PM)29.77 "Hg (Sep 24, 2:30 PM)
Average64 °F69%30.03 "Hg
* Reported Sep 14 5:00 PM — Sep 29 5:00 PM, Shenyang, Weather by CustomWeather, © 2016

Note: Actual official high and low records may vary slightly from our data, if they occured in-between our weather recording intervals... More about our weather records

Advertising

Shenyang Weather History for the Previous 24 Hours

Scroll right to see more
 ConditionsComfort  
Time TempWeatherWind HumidityBarometerVisibility
5:00 PM
Thu, Sep 29
61 °FSunny.3 mph39%29.95 "Hg10 mi
4:30 PM63 °FSunny.3 mph37%29.98 "Hg10 mi
4:00 PM64 °FSunny.8 mph34%29.98 "Hg10 mi
3:30 PM66 °FSunny.8 mph28%29.98 "Hg10 mi
3:00 PM66 °FPassing clouds.8 mph26%29.98 "HgN/A
2:30 PM66 °FPassing clouds.6 mph28%30.01 "HgN/A
2:00 PM68 °FSunny.3 mph26%30.01 "Hg10 mi
1:30 PM66 °FPassing clouds.3 mph26%30.01 "HgN/A
1:00 PM66 °FSunny.3 mph26%30.04 "Hg10 mi
12:30 PM64 °FSunny.3 mph28%30.04 "Hg10 mi
12:00 PM63 °FSunny.1 mph32%30.07 "Hg10 mi
11:30 AM61 °FPassing clouds.3 mph39%30.07 "HgN/A
11:00 AM61 °FSunny.1 mph39%30.09 "Hg10 mi
10:30 AM57 °FSunny.1 mph44%30.09 "Hg10 mi
10:00 AM55 °FSunny.1 mph51%30.12 "Hg10 mi
9:30 AM54 °FSunny.3 mph54%30.12 "Hg10 mi
9:00 AM50 °FPassing clouds.3 mph67%30.15 "HgN/A
8:30 AM48 °FPassing clouds.3 mph76%30.15 "HgN/A
8:00 AM46 °FSunny.6 mph82%30.15 "Hg10 mi
7:30 AM43 °FSunny.3 mph87%30.15 "Hg10 mi
7:00 AM41 °FPassing clouds.3 mph87%30.15 "HgN/A
6:30 AM39 °FClear.8 mph93%30.15 "Hg5 mi
6:00 AM37 °FClear.8 mph93%30.15 "Hg4 mi
5:30 AM36 °FClear.8 mph93%30.15 "Hg4 mi
5:00 AM39 °FClear.1 mph87%30.15 "Hg10 mi
4:30 AM37 °FClear.6 mph93%30.15 "Hg10 mi
4:00 AM36 °FClear.3 mph93%30.15 "Hg10 mi
3:30 AM36 °FClear.3 mph93%30.15 "Hg10 mi
3:00 AM37 °FClear.6 mph87%30.15 "Hg10 mi
2:30 AM39 °FClear.3 mph87%30.15 "Hg10 mi
2:00 AM41 °FClear.6 mph81%30.15 "Hg10 mi
1:30 AM39 °FClear.3 mph81%30.18 "Hg10 mi
1:00 AM41 °FClear.3 mph76%30.18 "Hg10 mi
12:30 AM41 °FClear.3 mph76%30.18 "Hg10 mi
12:00 AM43 °FPassing clouds.3 mph71%30.18 "HgN/A
11:30 PM
Wed, Sep 28
41 °FClear.1 mph76%30.18 "Hg10 mi
11:00 PM43 °FClear.3 mph71%30.18 "Hg10 mi
10:30 PM45 °FClear.6 mph66%30.21 "Hg10 mi
10:00 PM45 °FClear.6 mph66%30.21 "Hg10 mi
9:30 PM46 °FClear.3 mph62%30.21 "Hg10 mi
9:00 PM48 °FClear.3 mph54%30.21 "Hg10 mi
8:30 PM50 °FClear.3 mph50%30.21 "Hg10 mi
8:00 PM52 °FPassing clouds.6 mph47%30.21 "HgN/A
7:30 PM50 °FClear.6 mph50%30.21 "Hg10 mi
7:00 PM52 °FClear.6 mph44%30.21 "Hg10 mi
6:30 PM54 °FClear.6 mph38%30.21 "Hg10 mi
6:00 PM54 °FClear.8 mph38%30.18 "Hg10 mi
Weather by CustomWeather, © 2016

See weather overviewHow to use our weather pages